• In Czech Republic
  • List of Countries
  • For 7 days
  • Water Temperature
  • Satellite Maps
  • Weather Map
  • Weather Widgets
  • user-avatar
    Login

    Hourly Weather Belfast

    Today, 20 February, Tuesday

    Time Temperature Precipitation Wind Pressure Humidity
    00:00 +3°C° 0 mm 6 mps 765 mmHg 90%
    01:00 +3°C° 0 mm 6 mps 765 mmHg 90%
    02:00 +3°C° 0 mm 6 mps 765 mmHg 90%
    03:00 +3°C° 0 mm 6 mps 766 mmHg 89%
    04:00 +2°C° 0 mm 6 mps 766 mmHg 89%
    05:00 +2°C° 0 mm 6 mps 767 mmHg 89%
    06:00 +2°C° 0 mm 6 mps 767 mmHg 89%
    07:00 +2°C° 0 mm 6 mps 768 mmHg 88%
    08:00 +3°C° 0 mm 5 mps 768 mmHg 88%
    09:00 +3°C° 0 mm 5 mps 769 mmHg 87%
    10:00 +5°C° 0 mm 5 mps 769 mmHg 82%
    11:00 +5°C° 0 mm 6 mps 769 mmHg 78%
    12:00 +7°C° 0 mm 6 mps 770 mmHg 73%
    13:00 +7°C° 0 mm 6 mps 770 mmHg 71%
    14:00 +7°C° 0 mm 6 mps 770 mmHg 70%
    15:00 +7°C° 0 mm 6 mps 770 mmHg 69%
    16:00 +6°C° 0 mm 5 mps 770 mmHg 73%
    17:00 +5°C° 0 mm 5 mps 771 mmHg 78%
    18:00 +3°C° 0 mm 5 mps 771 mmHg 82%
    19:00 +2°C° 0 mm 5 mps 771 mmHg 84%
    20:00 +3°C° 0 mm 4 mps 772 mmHg 86%
    21:00 +1°C° 0 mm 4 mps 772 mmHg 87%
    22:00 +1°C° 0 mm 4 mps 772 mmHg 88%
    23:00 +2°C° 0 mm 3 mps 772 mmHg 89%

    Tomorrow, 21 February, Wednesday

    Time Temperature Precipitation Wind Pressure Humidity
    00:00 +1°C° 0 mm 3 mps 772 mmHg 90%
    01:00 +1°C° 0 mm 3 mps 772 mmHg 90%
    02:00 +2°C° 0 mm 2 mps 772 mmHg 91%
    03:00 +2°C° 0 mm 2 mps 772 mmHg 91%
    04:00 +2°C° 0 mm 2 mps 772 mmHg 91%
    05:00 +2°C° 0 mm 2 mps 771 mmHg 92%
    06:00 +3°C° 0 mm 1 mps 771 mmHg 92%
    07:00 +2°C° 0 mm 2 mps 771 mmHg 91%
    08:00 +3°C° 0 mm 2 mps 771 mmHg 90%
    09:00 +4°C° 0 mm 2 mps 771 mmHg 89%
    10:00 +5°C° 0 mm 2 mps 771 mmHg 84%
    11:00 +5°C° 0 mm 3 mps 771 mmHg 80%
    12:00 +7°C° 0 mm 3 mps 770 mmHg 75%
    13:00 +7°C° 0 mm 3 mps 770 mmHg 75%
    14:00 +8°C° 0 mm 3 mps 770 mmHg 74%
    15:00 +8°C° 0 mm 3 mps 769 mmHg 73%
    16:00 +7°C° 0 mm 3 mps 769 mmHg 79%
    17:00 +4°C° 0 mm 3 mps 769 mmHg 85%
    18:00 +3°C° 0 mm 3 mps 769 mmHg 91%
    19:00 +3°C° 0 mm 3 mps 769 mmHg 91%
    20:00 +2°C° 0 mm 3 mps 769 mmHg 92%
    21:00 +2°C° 0 mm 3 mps 769 mmHg 93%
    22:00 +2°C° 0 mm 3 mps 768 mmHg 93%
    23:00 +1°C° 0 mm 4 mps 768 mmHg 93%

    Day after tomorrow, 22 February, Thursday

    Time Temperature Precipitation Wind Pressure Humidity
    00:00 +1°C° 0 mm 4 mps 768 mmHg 93%
    01:00 +1°C° 0 mm 4 mps 768 mmHg 94%
    02:00 +1°C° 0 mm 4 mps 768 mmHg 94%
    03:00 +2°C° 0 mm 3 mps 767 mmHg 94%
    04:00 +1°C° 0 mm 4 mps 767 mmHg 94%
    05:00 0°C° 0 mm 4 mps 767 mmHg 94%
    06:00 0°C° 0 mm 4 mps 767 mmHg 94%
    07:00 +1°C° 0 mm 4 mps 767 mmHg 93%
    08:00 +1°C° 0 mm 4 mps 767 mmHg 92%
    09:00 +3°C° 0 mm 4 mps 767 mmHg 92%
    10:00 +3°C° 0 mm 5 mps 767 mmHg 87%
    11:00 +5°C° 0 mm 5 mps 767 mmHg 83%
    12:00 +5°C° 0 mm 6 mps 767 mmHg 79%
    13:00 +5°C° 0 mm 6 mps 766 mmHg 78%
    14:00 +6°C° 0 mm 5 mps 766 mmHg 78%
    15:00 +5°C° 0 mm 5 mps 766 mmHg 77%
    16:00 +5°C° 0 mm 5 mps 766 mmHg 78%
    17:00 +3°C° 0 mm 5 mps 766 mmHg 80%
    18:00 +2°C° 0 mm 5 mps 765 mmHg 82%
    19:00 +2°C° 0 mm 5 mps 766 mmHg 81%
    20:00 +2°C° 0 mm 5 mps 766 mmHg 80%
    21:00 +2°C° 0 mm 5 mps 766 mmHg 79%
    22:00 +2°C° 0 mm 5 mps 766 mmHg 78%
    23:00 +2°C° 0 mm 5 mps 766 mmHg 78%

    23 February, Friday

    Time Temperature Precipitation Wind Pressure Humidity
    00:00 +3°C° 0 mm 4 mps 766 mmHg 77%
    01:00 +3°C° 0 mm 4 mps 766 mmHg 78%
    02:00 +3°C° 0 mm 4 mps 766 mmHg 79%
    03:00 +3°C° 0 mm 4 mps 766 mmHg 81%
    04:00 +1°C° 0 mm 4 mps 766 mmHg 83%
    05:00 0°C° 0 mm 4 mps 766 mmHg 86%
    06:00 0°C° 0 mm 4 mps 766 mmHg 88%
    07:00 0°C° 0 mm 5 mps 766 mmHg 86%
    08:00 +1°C° 0 mm 5 mps 766 mmHg 84%
    09:00 +1°C° 0 mm 5 mps 767 mmHg 81%
    10:00 +2°C° 0 mm 5 mps 767 mmHg 77%
    11:00 +3°C° 0 mm 6 mps 767 mmHg 73%
    12:00 +4°C° 0 mm 6 mps 767 mmHg 69%
    13:00 +4°C° 0 mm 6 mps 767 mmHg 70%
    14:00 +4°C° 0 mm 6 mps 767 mmHg 70%
    15:00 +4°C° 0 mm 6 mps 766 mmHg 70%
    16:00 +3°C° 0 mm 6 mps 766 mmHg 73%
    17:00 +2°C° 0 mm 6 mps 766 mmHg 76%
    18:00 +1°C° 0 mm 5 mps 767 mmHg 79%
    19:00 +1°C° 0 mm 5 mps 767 mmHg 80%
    20:00 +1°C° 0 mm 6 mps 767 mmHg 80%
    21:00 +1°C° 0 mm 6 mps 767 mmHg 81%
    22:00 +1°C° 0 mm 6 mps 767 mmHg 80%
    23:00 0°C° 0 mm 7 mps 768 mmHg 79%

    24 February, Saturday

    Time Temperature Precipitation Wind Pressure Humidity
    00:00 0°C° 0 mm 7 mps 768 mmHg 78%
    01:00 0°C° 0 mm 7 mps 768 mmHg 80%
    02:00 -1°C° 0 mm 7 mps 768 mmHg 81%
    03:00 -1°C° 0 mm 7 mps 768 mmHg 83%
    04:00 -1°C° 0 mm 7 mps 768 mmHg 83%
    05:00 -1°C° 0 mm 7 mps 769 mmHg 83%
    06:00 -1°C° 0 mm 7 mps 769 mmHg 82%
    07:00 -1°C° 0 mm 7 mps 769 mmHg 80%
    08:00 -1°C° 0 mm 7 mps 769 mmHg 78%
    09:00 0°C° 0 mm 8 mps 770 mmHg 76%
    10:00 +1°C° 0 mm 8 mps 770 mmHg 73%
    11:00 +1°C° 0 mm 8 mps 770 mmHg 70%
    12:00 +2°C° 0 mm 8 mps 770 mmHg 67%
    13:00 +2°C° 0 mm 8 mps 770 mmHg 66%
    14:00 +2°C° 0 mm 8 mps 770 mmHg 64%
    15:00 +2°C° 0 mm 8 mps 770 mmHg 63%
    16:00 +2°C° 0 mm 8 mps 770 mmHg 65%
    17:00 +1°C° 0 mm 8 mps 770 mmHg 67%
    18:00 +2°C° 0 mm 7 mps 771 mmHg 69%
    19:00 0°C° 0 mm 8 mps 771 mmHg 69%
    20:00 0°C° 0 mm 8 mps 772 mmHg 69%
    21:00 0°C° 0 mm 9 mps 772 mmHg 70%
    22:00 0°C° 0 mm 9 mps 773 mmHg 71%
    23:00 -1°C° 0 mm 9 mps 773 mmHg 72%

    25 February, Sunday

    Time Temperature Precipitation Wind Pressure Humidity
    00:00 -1°C° 0 mm 9 mps 773 mmHg 73%
    01:00 -1°C° 0 mm 8 mps 773 mmHg 76%
    02:00 -1°C° 0 mm 8 mps 774 mmHg 78%
    03:00 -1°C° 0 mm 8 mps 774 mmHg 80%
    04:00 -1°C° 0 mm 8 mps 774 mmHg 79%
    05:00 -1°C° 0 mm 8 mps 774 mmHg 78%
    06:00 -1°C° 0 mm 8 mps 775 mmHg 76%
    07:00 0°C° 0 mm 8 mps 775 mmHg 75%
    08:00 0°C° 0 mm 8 mps 775 mmHg 73%
    09:00 0°C° 0 mm 8 mps 775 mmHg 71%
    10:00 +1°C° 0 mm 8 mps 775 mmHg 70%
    11:00 +1°C° 0 mm 8 mps 775 mmHg 68%
    12:00 +2°C° 0 mm 9 mps 775 mmHg 66%
    13:00 +2°C° 0 mm 9 mps 775 mmHg 65%
    14:00 +2°C° 0 mm 9 mps 775 mmHg 64%
    15:00 +2°C° 0 mm 9 mps 775 mmHg 62%
    16:00 +1°C° 0 mm 8 mps 775 mmHg 64%
    17:00 0°C° 0 mm 8 mps 775 mmHg 66%
    18:00 -1°C° 0 mm 8 mps 775 mmHg 67%
    19:00 -1°C° 0 mm 8 mps 775 mmHg 68%
    20:00 -2°C° 0 mm 8 mps 775 mmHg 69%
    21:00 -2°C° 0 mm 8 mps 775 mmHg 70%
    22:00 -4°C° 0 mm 8 mps 775 mmHg 71%
    23:00 -3°C° 0 mm 7 mps 775 mmHg 72%
    Show more